Time,TemperatureF,DewpointF,PressureIn,WindDirection,WindDirectionDegrees,WindSpeedMPH,WindSpeedGustMPH,Humidity,HourlyPrecipIn,Conditions,Clouds,dailyrainin,SoftwareType,DateUTC
2013-02-18 00:01:00,39.0,29.0,30.08,SW,220,0.0,0.0,66,0.00,,,0.00,,2013-02-18 08:01:00,
2013-02-18 00:11:00,39.0,28.0,30.07,SW,219,0.0,1.0,65,0.00,,,0.00,,2013-02-18 08:11:00,
2013-02-18 00:21:00,39.0,28.0,30.07,SW,219,0.0,1.0,65,0.00,,,0.00,,2013-02-18 08:21:00,
2013-02-18 00:32:00,39.0,28.0,30.06,NNW,340,0.0,3.0,65,0.00,,,0.00,,2013-02-18 08:32:00,
2013-02-18 00:41:00,39.0,28.0,30.06,NNW,340,0.0,3.0,65,0.00,,,0.00,,2013-02-18 08:41:00,
2013-02-18 00:52:00,39.0,28.0,30.06,NE,40,0.0,0.0,65,0.00,,,0.00,,2013-02-18 08:52:00,
2013-02-18 01:02:00,39.0,28.0,30.06,SSW,200,0.0,0.0,64,0.01,,,0.01,,2013-02-18 09:02:00,
2013-02-18 01:22:00,39.0,28.0,30.05,SSW,200,0.0,0.0,65,0.01,,,0.01,,2013-02-18 09:22:00,
2013-02-18 01:31:00,38.0,28.0,30.05,North,360,0.0,1.0,66,0.00,,,0.01,,2013-02-18 09:31:00,
2013-02-18 01:41:00,38.0,28.0,30.05,North,360,0.0,1.0,66,0.00,,,0.01,,2013-02-18 09:41:00,
2013-02-18 01:51:00,38.0,28.0,30.05,North,360,0.0,2.0,66,0.00,,,0.01,,2013-02-18 09:51:00,
2013-02-18 02:01:00,38.0,27.0,30.04,North,360,0.0,0.0,65,0.00,,,0.01,,2013-02-18 10:01:00,
2013-02-18 02:21:00,38.0,27.0,30.04,NNW,340,0.0,0.0,65,0.00,,,0.01,,2013-02-18 10:21:00,
2013-02-18 02:31:00,38.0,28.0,30.04,North,360,0.0,0.0,67,0.00,,,0.01,,2013-02-18 10:31:00,
2013-02-18 02:41:00,38.0,28.0,30.04,North,360,0.0,0.0,67,0.00,,,0.01,,2013-02-18 10:41:00,
2013-02-18 02:51:00,39.0,29.0,30.04,NNE,20,0.0,0.0,66,0.00,,,0.01,,2013-02-18 10:51:00,
2013-02-18 03:01:00,39.0,29.0,30.03,SSE,160,0.0,0.0,66,0.00,,,0.01,,2013-02-18 11:01:00,
2013-02-18 03:11:00,39.0,29.0,30.03,SSE,160,0.0,0.0,66,0.00,,,0.01,,2013-02-18 11:11:00,
2013-02-18 03:21:00,39.0,28.0,30.03,SSE,160,0.0,0.0,65,0.00,,,0.01,,2013-02-18 11:21:00,
2013-02-18 03:31:00,39.0,28.0,30.02,NNW,340,0.0,0.0,65,0.00,,,0.01,,2013-02-18 11:31:00,
2013-02-18 03:41:00,39.0,28.0,30.02,NNW,340,0.0,0.0,65,0.00,,,0.01,,2013-02-18 11:41:00,
2013-02-18 03:52:00,38.0,28.0,30.01,NNW,346,1.0,2.0,67,0.00,,,0.01,,2013-02-18 11:52:00,
2013-02-18 04:01:00,38.0,28.0,30.01,NNW,339,0.0,2.0,68,0.00,,,0.01,,2013-02-18 12:01:00,
2013-02-18 04:11:00,38.0,28.0,30.01,NNW,339,0.0,2.0,68,0.00,,,0.01,,2013-02-18 12:11:00,
2013-02-18 04:21:00,39.0,29.0,30.00,NNW,344,1.0,2.0,66,0.00,,,0.01,,2013-02-18 12:21:00,
2013-02-18 04:31:00,39.0,29.0,30.00,North,360,0.0,0.0,66,0.00,,,0.01,,2013-02-18 12:31:00,
2013-02-18 04:41:00,39.0,29.0,30.00,North,360,0.0,0.0,66,0.00,,,0.01,,2013-02-18 12:41:00,
2013-02-18 04:52:00,39.0,29.0,29.99,North,360,0.0,0.0,66,0.00,,,0.01,,2013-02-18 12:52:00,
2013-02-18 05:01:00,39.0,29.0,29.99,North,360,0.0,0.0,66,0.00,,,0.01,,2013-02-18 13:01:00,
2013-02-18 05:11:00,39.0,29.0,29.99,North,360,0.0,0.0,66,0.00,,,0.01,,2013-02-18 13:11:00,
2013-02-18 05:21:00,39.0,29.0,29.99,North,350,0.0,0.0,66,0.00,,,0.01,,2013-02-18 13:21:00,
2013-02-18 05:31:00,39.0,29.0,30.00,North,360,0.0,2.0,66,0.00,,,0.01,,2013-02-18 13:31:00,
2013-02-18 05:41:00,39.0,29.0,30.00,North,360,0.0,2.0,66,0.00,,,0.01,,2013-02-18 13:41:00,
2013-02-18 05:52:00,39.0,29.0,30.00,NNW,340,0.0,2.0,66,0.00,,,0.01,,2013-02-18 13:52:00,
2013-02-18 06:01:00,39.0,28.0,29.99,NNW,340,0.0,0.0,65,0.00,,,0.01,,2013-02-18 14:01:00,
2013-02-18 06:11:00,39.0,28.0,29.99,NNW,340,0.0,0.0,65,0.00,,,0.01,,2013-02-18 14:11:00,
2013-02-18 06:21:00,39.0,28.0,30.00,North,360,0.0,0.0,65,0.00,,,0.01,,2013-02-18 14:21:00,
2013-02-18 06:31:00,39.0,28.0,29.99,North,360,0.0,0.0,65,0.00,,,0.01,,2013-02-18 14:31:00,
2013-02-18 06:41:00,39.0,28.0,29.99,North,360,0.0,0.0,65,0.00,,,0.01,,2013-02-18 14:41:00,
2013-02-18 06:52:00,40.0,30.0,29.99,North,360,0.0,0.0,66,0.00,,,0.01,,2013-02-18 14:52:00,
2013-02-18 07:01:00,39.0,28.0,29.99,North,360,0.0,0.0,65,0.00,,,0.01,,2013-02-18 15:01:00,
2013-02-18 07:11:00,39.0,28.0,29.99,North,360,0.0,0.0,65,0.00,,,0.01,,2013-02-18 15:11:00,
2013-02-18 07:21:00,39.0,28.0,29.99,North,360,0.0,0.0,65,0.00,,,0.01,,2013-02-18 15:21:00,
2013-02-18 07:31:00,40.0,30.0,29.99,South,180,0.0,0.0,66,0.00,,,0.01,,2013-02-18 15:31:00,
2013-02-18 07:41:00,40.0,30.0,29.99,South,180,0.0,0.0,66,0.00,,,0.01,,2013-02-18 15:41:00,
2013-02-18 07:51:00,40.0,30.0,29.99,SSE,160,0.0,0.0,67,0.00,,,0.01,,2013-02-18 15:51:00,
2013-02-18 08:01:00,41.0,31.0,29.99,ENE,67,2.0,5.0,67,0.00,,,0.01,,2013-02-18 16:01:00,
2013-02-18 08:11:00,41.0,31.0,29.99,ENE,67,2.0,5.0,67,0.00,,,0.01,,2013-02-18 16:11:00,
2013-02-18 08:21:00,41.0,31.0,29.98,NE,51,2.0,4.0,66,0.00,,,0.01,,2013-02-18 16:21:00,
2013-02-18 08:31:00,41.0,30.0,29.98,NE,46,2.0,6.0,65,0.00,,,0.01,,2013-02-18 16:31:00,
2013-02-18 08:41:00,41.0,30.0,29.98,NE,46,2.0,6.0,65,0.00,,,0.01,,2013-02-18 16:41:00,
2013-02-18 08:51:00,42.0,31.0,29.98,ESE,116,1.0,7.0,64,0.00,,,0.01,,2013-02-18 16:51:00,
2013-02-18 09:02:00,43.0,31.0,29.98,ENE,57,3.0,8.0,63,0.00,,,0.01,,2013-02-18 17:02:00,
2013-02-18 09:11:00,43.0,31.0,29.98,ENE,57,3.0,8.0,63,0.00,,,0.01,,2013-02-18 17:11:00,
2013-02-18 09:21:00,43.0,31.0,29.98,South,173,1.0,9.0,63,0.00,,,0.01,,2013-02-18 17:21:00,
2013-02-18 09:31:00,43.0,31.0,29.98,ENE,64,4.0,7.0,63,0.00,,,0.01,,2013-02-18 17:31:00,
2013-02-18 09:41:00,43.0,31.0,29.98,ENE,64,4.0,7.0,63,0.00,,,0.01,,2013-02-18 17:41:00,
2013-02-18 09:52:00,44.0,32.0,29.98,ENE,62,2.0,8.0,63,0.00,,,0.01,,2013-02-18 17:52:00,
2013-02-18 10:01:00,45.0,32.0,29.97,NNE,13,2.0,6.0,60,0.00,,,0.01,,2013-02-18 18:01:00,
2013-02-18 10:21:00,45.0,32.0,29.97,East,81,2.0,7.0,59,0.00,,,0.01,,2013-02-18 18:21:00,
2013-02-18 10:31:00,45.0,31.0,29.97,ENE,69,2.0,9.0,57,0.00,,,0.01,,2013-02-18 18:31:00,
2013-02-18 10:41:00,45.0,31.0,29.97,ENE,69,2.0,9.0,57,0.00,,,0.01,,2013-02-18 18:41:00,
2013-02-18 10:51:00,45.0,30.0,29.97,SE,146,2.0,6.0,56,0.00,,,0.01,,2013-02-18 18:51:00,
2013-02-18 11:01:00,46.0,31.0,29.96,ENE,76,5.0,14.0,55,0.00,,,0.01,,2013-02-18 19:01:00,
2013-02-18 11:11:00,46.0,31.0,29.96,ENE,76,5.0,14.0,55,0.00,,,0.01,,2013-02-18 19:11:00,
2013-02-18 11:21:00,47.0,31.0,29.96,SE,133,2.0,9.0,54,0.00,,,0.01,,2013-02-18 19:21:00,
2013-02-18 11:32:00,48.0,32.0,29.96,NE,47,4.0,13.0,53,0.00,,,0.01,,2013-02-18 19:32:00,
2013-02-18 11:41:00,48.0,32.0,29.96,NE,47,4.0,13.0,53,0.00,,,0.01,,2013-02-18 19:41:00,
2013-02-18 11:51:00,47.0,30.0,29.96,North,353,5.0,12.0,52,0.00,,,0.01,,2013-02-18 19:51:00,
2013-02-18 12:01:00,48.0,31.0,29.95,WNW,297,3.0,8.0,51,0.00,,,0.01,,2013-02-18 20:01:00,
2013-02-18 12:21:00,49.0,31.0,29.95,WSW,247,2.0,7.0,50,0.00,,,0.01,,2013-02-18 20:21:00,
2013-02-18 12:31:00,49.0,31.0,29.94,NW,305,3.0,8.0,49,0.00,,,0.01,,2013-02-18 20:31:00,
2013-02-18 12:41:00,49.0,31.0,29.94,NW,305,3.0,8.0,49,0.00,,,0.01,,2013-02-18 20:41:00,
2013-02-18 12:52:00,49.0,31.0,29.94,West,259,2.0,7.0,49,0.00,,,0.01,,2013-02-18 20:52:00,
2013-02-18 13:01:00,49.0,30.0,29.93,SSW,211,3.0,9.0,48,0.00,,,0.01,,2013-02-18 21:01:00,
2013-02-18 13:11:00,49.0,30.0,29.93,SSW,211,3.0,9.0,48,0.00,,,0.01,,2013-02-18 21:11:00,
2013-02-18 13:21:00,50.0,31.0,29.93,West,261,3.0,11.0,47,0.00,,,0.01,,2013-02-18 21:21:00,
2013-02-18 13:31:00,50.0,30.0,29.92,West,259,2.0,10.0,46,0.00,,,0.01,,2013-02-18 21:31:00,
2013-02-18 13:41:00,50.0,30.0,29.92,West,259,2.0,10.0,46,0.00,,,0.01,,2013-02-18 21:41:00,
2013-02-18 13:52:00,50.0,30.0,29.92,WSW,250,3.0,10.0,46,0.00,,,0.01,,2013-02-18 21:52:00,
2013-02-18 14:01:00,50.0,30.0,29.92,SW,225,2.0,13.0,46,0.00,,,0.01,,2013-02-18 22:01:00,
2013-02-18 14:11:00,50.0,29.0,29.91,WSW,237,2.0,15.0,45,0.00,,,0.01,,2013-02-18 22:11:00,
2013-02-18 14:21:00,50.0,29.0,29.91,WSW,237,2.0,15.0,45,0.00,,,0.01,,2013-02-18 22:21:00,
2013-02-18 14:32:00,51.0,29.0,29.90,WNW,287,3.0,10.0,43,0.00,,,0.01,,2013-02-18 22:32:00,
2013-02-18 14:41:00,51.0,29.0,29.90,WNW,287,3.0,10.0,43,0.00,,,0.01,,2013-02-18 22:41:00,
2013-02-18 14:53:00,50.0,29.0,29.89,WNW,294,3.0,13.0,45,0.00,,,0.01,,2013-02-18 22:53:00,
2013-02-18 15:01:00,49.0,27.0,29.89,WNW,282,4.0,11.0,43,0.00,,,0.01,,2013-02-18 23:01:00,
2013-02-18 15:21:00,49.0,29.0,29.89,WNW,290,2.0,9.0,45,0.00,,,0.01,,2013-02-18 23:21:00,
2013-02-18 15:31:00,49.0,28.0,29.88,SW,231,1.0,13.0,44,0.00,,,0.01,,2013-02-18 23:31:00,
2013-02-18 15:41:00,49.0,28.0,29.88,SW,231,1.0,13.0,44,0.00,,,0.01,,2013-02-18 23:41:00,
2013-02-18 15:52:00,49.0,27.0,29.88,West,262,3.0,9.0,43,0.00,,,0.01,,2013-02-18 23:52:00,
2013-02-18 16:01:00,48.0,28.0,29.87,WNW,292,2.0,10.0,45,0.00,,,0.01,,2013-02-19 00:01:00,
2013-02-18 16:11:00,48.0,28.0,29.87,WNW,292,2.0,10.0,45,0.00,,,0.01,,2013-02-19 00:11:00,
2013-02-18 16:21:00,48.0,27.0,29.87,WSW,251,3.0,7.0,44,0.00,,,0.01,,2013-02-19 00:21:00,
2013-02-18 16:41:00,47.0,27.0,29.86,WSW,257,3.0,18.0,46,0.00,,,0.01,,2013-02-19 00:41:00,
2013-02-18 16:52:00,47.0,27.0,29.85,SW,220,0.0,6.0,45,0.00,,,0.01,,2013-02-19 00:52:00,
2013-02-18 17:02:00,46.0,26.0,29.85,WSW,253,3.0,9.0,46,0.00,,,0.01,,2013-02-19 01:02:00,
2013-02-18 17:11:00,46.0,26.0,29.85,WSW,253,3.0,9.0,46,0.00,,,0.01,,2013-02-19 01:11:00,
2013-02-18 17:21:00,46.0,26.0,29.85,WSW,244,3.0,6.0,46,0.00,,,0.01,,2013-02-19 01:21:00,
2013-02-18 17:31:00,46.0,26.0,29.84,WSW,251,3.0,7.0,46,0.00,,,0.01,,2013-02-19 01:31:00,
2013-02-18 17:41:00,46.0,26.0,29.84,WSW,251,3.0,7.0,46,0.00,,,0.01,,2013-02-19 01:41:00,
2013-02-18 17:52:00,46.0,27.0,29.84,SW,236,2.0,9.0,48,0.00,,,0.01,,2013-02-19 01:52:00,
2013-02-18 18:01:00,46.0,27.0,29.83,SW,234,1.0,6.0,47,0.00,,,0.01,,2013-02-19 02:01:00,
2013-02-18 18:11:00,46.0,27.0,29.83,SW,234,1.0,6.0,47,0.00,,,0.01,,2013-02-19 02:11:00,
2013-02-18 18:21:00,46.0,27.0,29.82,WSW,246,1.0,8.0,47,0.00,,,0.01,,2013-02-19 02:21:00,
2013-02-18 18:32:00,45.0,27.0,29.82,WSW,249,4.0,8.0,49,0.00,,,0.01,,2013-02-19 02:32:00,
2013-02-18 18:41:00,45.0,27.0,29.82,WSW,249,4.0,8.0,49,0.00,,,0.01,,2013-02-19 02:41:00,
2013-02-18 18:53:00,45.0,27.0,29.82,West,264,0.0,7.0,49,0.00,,,0.01,,2013-02-19 02:53:00,
2013-02-18 19:01:00,45.0,27.0,29.81,West,272,1.0,9.0,49,0.00,,,0.01,,2013-02-19 03:01:00,
2013-02-18 19:11:00,45.0,27.0,29.81,WNW,285,3.0,10.0,48,0.00,,,0.01,,2013-02-19 03:11:00,
2013-02-18 19:21:00,45.0,27.0,29.81,WNW,285,3.0,10.0,48,0.00,,,0.01,,2013-02-19 03:21:00,
2013-02-18 19:31:00,45.0,27.0,29.80,WSW,257,1.0,6.0,49,0.00,,,0.01,,2013-02-19 03:31:00,
2013-02-18 19:42:00,45.0,27.0,29.80,WSW,257,1.0,6.0,49,0.00,,,0.01,,2013-02-19 03:42:00,
2013-02-18 19:51:00,44.0,27.0,29.80,WNW,296,4.0,10.0,50,0.00,,,0.01,,2013-02-19 03:51:00,
2013-02-18 20:01:00,44.0,27.0,29.80,NNW,339,0.0,7.0,51,0.00,,,0.01,,2013-02-19 04:01:00,
2013-02-18 20:21:00,44.0,28.0,29.80,SW,220,0.0,6.0,53,0.00,,,0.01,,2013-02-19 04:21:00,
2013-02-18 20:31:00,44.0,28.0,29.79,SW,227,2.0,6.0,53,0.00,,,0.01,,2013-02-19 04:31:00,
2013-02-18 20:42:00,44.0,28.0,29.79,SW,227,2.0,6.0,53,0.00,,,0.01,,2013-02-19 04:42:00,
2013-02-18 20:51:00,44.0,28.0,29.78,NNW,340,1.0,3.0,54,0.00,,,0.01,,2013-02-19 04:51:00,
2013-02-18 21:01:00,44.0,30.0,29.79,SSW,200,0.0,1.0,57,0.00,,,0.01,,2013-02-19 05:01:00,
2013-02-18 21:12:00,44.0,30.0,29.79,SSW,200,0.0,1.0,57,0.00,,,0.01,,2013-02-19 05:12:00,
2013-02-18 21:22:00,44.0,30.0,29.79,SSW,200,0.0,0.0,57,0.00,,,0.01,,2013-02-19 05:22:00,
2013-02-18 21:31:00,44.0,30.0,29.78,SSW,203,0.0,2.0,58,0.00,,,0.01,,2013-02-19 05:31:00,
2013-02-18 21:42:00,44.0,30.0,29.78,SSW,203,0.0,2.0,58,0.00,,,0.01,,2013-02-19 05:42:00,
2013-02-18 21:52:00,44.0,30.0,29.78,ENE,65,1.0,5.0,58,0.00,,,0.01,,2013-02-19 05:52:00,
2013-02-18 22:02:00,44.0,31.0,29.77,SSW,210,0.0,0.0,60,0.00,,,0.01,,2013-02-19 06:02:00,
2013-02-18 22:11:00,44.0,31.0,29.77,SSW,210,0.0,0.0,60,0.00,,,0.01,,2013-02-19 06:11:00,
2013-02-18 22:21:00,43.0,30.0,29.78,SSW,200,0.0,0.0,61,0.00,,,0.02,,2013-02-19 06:21:00,
2013-02-18 22:32:00,43.0,31.0,29.77,NNW,327,1.0,4.0,62,0.00,,,0.02,,2013-02-19 06:32:00,
2013-02-18 22:41:00,43.0,31.0,29.77,NNW,327,1.0,4.0,62,0.00,,,0.02,,2013-02-19 06:41:00,
2013-02-18 22:52:00,43.0,31.0,29.77,SSE,167,0.0,3.0,62,0.00,,,0.02,,2013-02-19 06:52:00,
2013-02-18 23:01:00,43.0,31.0,29.77,SW,219,0.0,1.0,63,0.01,,,0.03,,2013-02-19 07:01:00,
2013-02-18 23:11:00,43.0,31.0,29.77,SW,219,0.0,1.0,63,0.01,,,0.03,,2013-02-19 07:11:00,
2013-02-18 23:21:00,43.0,31.0,29.77,SSW,200,0.0,3.0,63,0.01,,,0.03,,2013-02-19 07:21:00,
2013-02-18 23:31:00,43.0,32.0,29.76,NW,314,2.0,7.0,64,0.01,,,0.04,,2013-02-19 07:31:00,
2013-02-18 23:41:00,43.0,32.0,29.76,NW,314,2.0,7.0,64,0.01,,,0.04,,2013-02-19 07:41:00,
2013-02-18 23:51:00,43.0,31.0,29.76,NNW,329,3.0,7.0,63,0.01,,,0.04,,2013-02-19 07:51:00,